Flight Track Log - Related Links

Times and Time Zones

All times are in EDT time to prevent confusion due to time zone crossing. See the EJA940 flight status page for this flight to view local times or setup timezone preferences in your user account.

Time Position Orientation Groundspeed Altitude Reporting Facility
EDT Latitude Longitude Course Direction KTS MPH feet Rate Location/Type
Wed 07:37:54 AM 39.9833 -75.8833 267° West 202 232 1,500  Level Philadelphia TRACON
Wed 07:38:32 AM 39.9814 -75.9339 197° South 260 299 2,900 2,260 Climbing FAA TRACON SMA TRACON (SMA)
Wed 07:39:11 AM 39.9383 -75.9514 115° Southeast 285 328 4,400 2,810 Climbing FAA TRACON SMA TRACON (SMA)
Wed 07:39:51 AM 39.9192 -75.8978 90° East 289 333 6,600 2,734 Climbing FAA TRACON SMA TRACON (SMA)
Wed 07:40:30 AM 39.9192 -75.8219 90° East 306 352 8,000 1,050 Climbing FAA TRACON SMA TRACON (SMA)
Wed 07:41:11 AM 39.9189 -75.7461 56° Northeast 308 354 8,000  Level FAA TRACON SMA TRACON (SMA)
Wed 07:41:51 AM 39.9475 -75.6900 36° Northeast 305 351 8,000  Level FAA TRACON SMA TRACON (SMA)
Wed 07:42:32 AM 39.9947 -75.6453 16° North 302 348 8,000 750 Level FAA TRACON SMA TRACON (SMA)
Wed 07:43:11 AM 40.0508 -75.6244 16° North 311 358 9,000 1,519 Climbing FAA TRACON SMA TRACON (SMA)
Wed 07:43:51 AM 40.1031 -75.6053 15° North 320 368 10,000 2,074 Climbing FAA TRACON SMA TRACON (SMA)
Wed 07:44:32 AM 40.1683 -75.5825 350° North 348 400 11,800 2,593 Climbing FAA TRACON SMA TRACON (SMA)
Wed 07:45:12 AM 40.2367 -75.5975 320° Northwest 365 420 13,500 2,506 Climbing FAA TRACON SMA TRACON (SMA)
Wed 07:45:51 AM 40.2819 -75.6478 310° West 365 420 15,100 2,550 Climbing FAA TRACON SMA TRACON (SMA)
Wed 07:46:32 AM 40.3289 -75.7206 312° West 368 423 16,900 1,390 Climbing FAA TRACON SMA TRACON (SMA)
Wed 07:47:13 AM 40.3747 -75.7875 299° West 416 479 17,000 1,134 Climbing FAA TRACON SMA TRACON (SMA)
Wed 07:48:39 AM 40.4514 -75.9694 282° West 411 473 19,300 2,000 Climbing New York Center
Wed 07:49:40 AM 40.4742 -76.1131 283° West 400 460 21,900 2,508 Climbing New York Center
Wed 07:50:41 AM 40.4986 -76.2569 282° West 400 460 24,400 2,300 Climbing New York Center
Wed 07:51:40 AM 40.5211 -76.4008 282° West 400 460 26,500 2,168 Climbing New York Center
Wed 07:52:40 AM 40.5453 -76.5503 287° West 405 466 28,700 2,083 Climbing New York Center
Wed 07:53:41 AM 40.5794 -76.7008 289° West 422 486 30,700 1,736 Climbing New York Center
Wed 07:54:41 AM 40.6194 -76.8547 292° West 432 497 32,200 1,220 Climbing New York Center
Wed 07:55:39 AM 40.6622 -76.9953 322° Northwest 441 507 33,100 915 Climbing New York Center
Wed 07:56:39 AM 40.7947 -77.1306 333° Northwest 466 536 34,000 450 Climbing New York Center
Wed 07:57:39 AM 40.9253 -77.2197 333° Northwest 490 564 34,000  Level New York Center
Wed 07:59:12 AM 41.1308 -77.3575 332° Northwest 496 571 34,000  Level Cleveland Center
Wed 08:00:12 AM 41.2350 -77.4297 333° Northwest 510 587 34,000  Level Cleveland Center
Wed 08:01:12 AM 41.3900 -77.5358 333° Northwest 515 593 34,000  Level Cleveland Center
Wed 08:02:12 AM 41.5175 -77.6239 331° Northwest 515 593 34,000  Level Cleveland Center
Wed 08:03:12 AM 41.6428 -77.7156 332° Northwest 515 593 34,000 -100 Level Cleveland Center
Wed 08:04:12 AM 41.7681 -77.8047 332° Northwest 510 587 33,800 -600 Descending Cleveland Center
Wed 08:05:12 AM 41.8972 -77.8967 332° Northwest 510 587 32,800 -1,000 Descending Cleveland Center
Wed 08:06:12 AM 42.0244 -77.9864 332° Northwest 515 593 31,800 -1,000 Descending Cleveland Center
Wed 08:07:12 AM 42.1411 -78.0683 331° Northwest 520 598 30,800 -900 Descending Cleveland Center
Wed 08:08:12 AM 42.2703 -78.1644 333° Northwest 520 598 30,000 -400 Descending Cleveland Center
Wed 08:09:12 AM 42.3992 -78.2550 332° Northwest 525 604 30,000  Level Cleveland Center
Wed 08:10:12 AM 42.5239 -78.3464 331° Northwest 525 604 30,000 -300 Level Cleveland Center
Wed 08:11:12 AM 42.6467 -78.4378 331° Northwest 520 598 29,400 -1,150 Descending Cleveland Center
Wed 08:12:12 AM 42.7842 -78.5436 330° Northwest 514 592 27,700 -3,200 Descending Cleveland Center
Wed 08:13:12 AM 42.9022 -78.6361 314° West 499 574 23,000 -2,300 Descending Cleveland Center
Wed 08:14:12 AM 42.9897 -78.7583 306° West 456 525 23,100 -978 Climbing Cleveland Center
Wed 08:16:10 AM 43.1167 -79.0000 304° West 430 495 20,100 -1,888 Descending Toronto Center
Wed 08:17:10 AM 43.1833 -79.1333 309° West 410 472 17,500 -2,300 Descending Toronto Center
Wed 08:18:10 AM 43.2333 -79.2167 301° West 370 426 15,500 -1,650 Descending Toronto Center
Wed 08:19:10 AM 43.2833 -79.3333 336° Northwest 300 345 14,200 -2,000 Descending Toronto Center
Wed 08:20:10 AM 43.3667 -79.3833 331° Northwest 310 357 11,500 -2,050 Descending Toronto Center
Wed 08:21:10 AM 43.4333 -79.4333 340° North 300 345 10,100 -1,100 Descending Toronto Center
Wed 08:22:10 AM 43.5000 -79.4667 331° Northwest 280 322 9,300 -1,000 Descending Toronto Center
Wed 08:23:10 AM 43.5667 -79.5167 36° Northeast 260 299 8,100 -1,400 Descending Toronto Center
Wed 08:24:10 AM 43.6333 -79.4500 44° Northeast 270 311 6,500 -1,950 Descending Toronto Center
Wed 08:25:10 AM 43.6833 -79.3833 360° North 240 276 4,200 -1,700 Descending Toronto Center
Wed 08:26:10 AM 43.7333 -79.3833 295° West 210 242 3,100 -600 Descending Toronto Center
Wed 08:27:10 AM 43.7500 -79.4333 251° West 190 219 3,000 -300 Descending Toronto Center
Wed 08:28:10 AM 43.7333 -79.5000 200° South 180 207 2,500 -650 Descending Toronto Center
Wed 08:29:10 AM 43.7000 -79.5167 245° Southwest 150 173 1,700 -750 Descending Toronto Center
Wed 08:30:10 AM 43.6833 -79.5667 245° Southwest 130 150 1,000 -700 Descending Toronto Center

Login

Don't have an account? Register now (free) for customized features, flight alerts, and more!